星链-32001 (STARLINK-32001 )

导读 | 豆包AI

STARLINK-32001是美国于北京时间2024年6月23日08:00发射的星链卫星,星链计划是美国太空探索技术公司SpaceX打造的低轨卫星互联网星座项目。该卫星主要为全球偏远地区提供高速互联网接入服务,进一步补充完善星链星座的全球覆盖能力,提升星座整体服务容量与稳定性。

Basic Information
目录编号:
60110
目录名称:
STARLINK-32001
国际标识:
2024-117V
轨道中心:
EARTH
卫星名称:
星链-32001
卫星全名:
星链-32001 (STARLINK-32001 )
卫星状态:
在轨 (已飞行677 天)
发射日期:
2024-06-23 UTC
国别 :
美国 (US)
星等 :
--
Orbit Information
数据来源 国际轨道数据
星历时间: 2026-04-30T20:09:46+0800
16小时前
查看轨道信息
半长轴: 6853.366km
偏心率: 0.0001233
轨道倾角: 53.160°
近地点辐角 79.923°
升交点赤经 156.169°
平近点角 280.191°
近地点: 474.383km
远地点: 476.075km
周期: 94.106分钟
每日圈数: 15.301955
Detailed Information
固有亮度:
5
最大亮度:
1.5
卫星平台:
Starlink v2.0 mini
覆盖范围:
全球
运营商:
太空探索技术公司
运营商所在国:
美国
制造商(研发单位):
太空探索技术公司
制造商所在国:
美国
使用方式:
暂无
Satellite Introduction
星链(Starlink)计划是由太空探索技术公司(SpaceX)提出的一个巨型低轨卫星互联网星座项目,计划在2019年至2024年间在太空搭建由约1.2万颗卫星组成的“星链”网络,其中1584颗将部署在地球上空550千米处的近地轨道,并从2020年开始工作。该卫星仍在工作。
2D Orbit Map
3D Orbit Map
Orbit Altitude Analysis Chart
Orbit Inclination Analysis Chart
Orbit Comprehensive Analysis Chart
View Comprehensive Chart